TEVEL2-4

Last updated on Thu Oct 30 2025 00:03:11 GMT+0000 (Coordinated Universal Time)

1 63213U 25052D 25302.45365505 .00021830 00000+0 87889-3 0 9990 2 63213 97.4118 194.6582 0002457 155.1310 205.0047 15.24885180 34834
UTC large
Height (km)
Speed (km/s)
/
Latitude / Longitude
Inclination (degrees)
Orbital Period (minutes)
Azimuth
Elevation
Range (km)
Doppler Factor

Next 0 passes for location: London (51.5072 / 0.1276)

Sorry there are no passes over London.